[[{"header":{"parameterUnit":"m.s-1","parameterCategory":1,"la1":30.2991,"la2":30.254,"lo1":-89.0895,"lo2":-89.0444,"dy":0.0017,"dx":0.0017,"nx":28,"ny":28,"refTime":"2023-11-10T03:00:00:Z","depth":0,"parameterNumber":2,"parameterNumberName":"U-component_of_WINDS"},"data":[0,0,0,0,0,0,0,0,0,0,0,0,0,0,0,0,0,0,0,0,0,0,0,0,0,0,0,0,0,0,0,0,0,0,0,0,0,0,0,0,0,0,0,0,0,0,0,0,0,0,0,0,0,0,0,0,0,0,-1.1384,-1.1385,0,-1.1488,-1.1489,-1.149,-1.1496,-1.1495,-1.1494,-1.1493,-1.1599,-1.1603,-1.1607,0,0,0,0,0,0,0,0,0,0,0,0,0,-1.1192,-1.1196,-1.1384,-1.1386,-1.1387,-1.1488,-1.1489,-1.1491,-1.1497,-1.1495,-1.1494,-1.1492,-1.1598,-1.1603,-1.1608,0,0,0,0,0,0,0,0,0,0,0,0,0,-1.1284,-1.1197,-1.1384,-1.1402,-1.1405,-1.1488,-1.1489,-1.1491,-1.1497,-1.1495,-1.1493,-1.1492,-1.1597,-1.1602,-1.1608,-1.168,0,0,-1.1626,-1.1629,0,0,0,0,0,0,0,0,-1.1279,-1.1291,-1.1398,-1.1401,-1.1404,-1.1477,-1.1461,-1.1555,-1.1497,-1.1462,-1.1493,-1.1491,-1.156,-1.1569,-1.1593,-1.1685,-1.169,-1.1627,-1.163,-1.1633,-1.1635,0,0,0,0,0,0,0,-1.1272,-1.1286,-1.1425,-1.14,-1.1403,-1.1405,-1.1416,-1.1479,-1.152,-1.1465,-1.1466,-1.1478,-1.1562,-1.1587,-1.1595,-1.1692,-1.1627,-1.1632,-1.1636,-1.1638,-1.1851,-1.1853,0,0,0,0,0,0,-1.1262,-1.1281,-1.1422,-1.1428,-1.1336,-1.141,-1.1422,-1.1456,-1.1519,-1.1527,-1.1479,-1.1478,-1.1578,-1.1588,-1.1599,-1.1689,-1.1633,-1.1638,-1.1642,-1.1849,-1.1851,-1.1853,0,0,0,0,0,0,-1.1258,-1.1275,-1.1418,-1.1355,-1.1373,-1.1415,-1.1453,-1.1459,-1.1484,-1.153,-1.1537,-1.1497,-1.1577,-1.1591,-1.166,-1.1692,-1.1641,-1.1647,-1.1846,-1.1849,-1.1852,-1.1868,0,0,0,0,0,0,-1.1253,-1.1273,-1.1301,-1.1356,-1.1377,-1.1477,-1.1455,-1.1462,-1.1494,-1.1493,-1.1549,-1.1556,-1.1576,-1.1652,-1.1666,-1.17,-1.1651,-1.1843,-1.1848,-1.1851,-1.1865,-1.1871,-1.1877,0,0,0,0,0,-1.1246,-1.1301,-1.1302,-1.1319,-1.1412,-1.1479,-1.1491,-1.1513,-1.1496,-1.1525,-1.1555,-1.1555,-1.1686,-1.1659,-1.1675,-1.1711,-1.1842,-1.1846,-1.1851,-1.1862,-1.187,-1.1877,0,0,0,0,0,0,-1.1248,-1.1308,-1.131,-1.1385,-1.1427,-1.148,-1.1516,-1.152,-1.1568,-1.1565,-1.159,-1.1602,-1.1672,-1.1698,-1.1666,-1.1785,-1.1762,-1.177,-1.1765,-1.1773,-1.1779,-1.1771,-1.1656,0,0,0,0,0,-1.1258,-1.1307,-1.1357,-1.1418,-1.1439,-1.1474,-1.1504,-1.1517,-1.1562,-1.158,-1.1614,-1.1658,-1.1709,-1.1743,-1.1792,-1.1869,-1.1882,-1.1902,-1.1908,-1.1912,-1.1919,-1.1963,-1.1973,-1.1869,-1.1869,-1.1869,0,0,-1.1277,-1.1316,-1.1346,-1.1419,-1.1454,-1.1505,-1.1489,-1.1543,-1.1582,-1.1588,-1.1656,-1.1684,-1.1734,-1.1808,-1.1842,-1.1832,-1.1951,-1.1918,-1.1922,-1.1926,-1.1969,-1.1979,-1.1987,-1.1872,-1.1872,-1.1871,0,0,-1.134,-1.1374,-1.1429,-1.1463,-1.1516,-1.1539,-1.1552,-1.1605,-1.1623,-1.1693,-1.1699,-1.1745,-1.1832,-1.1868,-1.1898,-1.1975,-1.1977,-1.1991,-1.2022,-1.2065,-1.2073,-1.208,-1.2109,-1.2118,-1.1997,-1.1997,-1.1997,0,-1.1357,-1.1435,-1.1456,-1.1511,-1.1544,-1.1552,-1.1609,-1.1641,-1.1707,-1.173,-1.1717,-1.1828,-1.1863,-1.1946,-1.1965,-1.1988,-1.2005,-1.1984,-1.207,-1.2077,-1.2085,-1.2112,-1.2123,-1.1999,-1.1999,-1.1998,-1.1998,0,-1.1454,-1.1508,-1.1546,-1.161,-1.1647,-1.1702,-1.1733,-1.1768,-1.1778,-1.1803,-1.1874,-1.1915,-1.1974,-1.1995,-1.2005,-1.208,-1.2072,-1.2064,-1.2042,-1.2095,-1.2122,-1.2132,-1.2001,-1.2,-1.2,-1.1999,0,0,-1.1521,-1.1597,-1.161,-1.164,-1.1699,-1.1741,-1.1797,-1.1854,-1.1884,-1.1929,-1.1978,-1.2052,-1.2046,-1.208,-1.2094,-1.2131,-1.2191,-1.212,-1.2121,-1.2132,-1.2278,-1.2283,-1.2295,-1.2193,-1.2195,-1.2197,-1.2274,0,-1.159,-1.169,-1.1712,-1.1798,-1.1849,-1.1858,-1.1907,-1.1949,-1.1973,-1.202,-1.2047,-1.21,-1.2088,-1.2108,-1.2145,-1.2176,-1.2221,-1.2171,-1.2239,-1.2241,-1.2227,-1.2309,-1.2315,-1.2385,-1.2284,-1.2286,-1.2287,0,-1.1684,-1.1732,-1.1823,-1.1877,-1.1899,-1.1942,-1.1998,-1.2042,-1.209,-1.2105,-1.2144,-1.2154,-1.2214,-1.2189,-1.2272,-1.2237,-1.2266,-1.2286,-1.2289,-1.2297,-1.2268,-1.2319,-1.2408,-1.2419,-1.2303,-1.2302,-1.2301,0,-1.1724,-1.1811,-1.1878,-1.1903,-1.1966,-1.1997,-1.2025,-1.2071,-1.2105,-1.2153,-1.2176,-1.223,-1.226,-1.2303,-1.2329,-1.2308,-1.241,-1.2386,-1.2425,-1.2425,-1.2447,-1.2445,-1.2542,-1.2464,-1.2464,-1.2464,-1.2464,0,-1.1799,-1.1855,-1.1897,-1.1938,-1.2001,-1.2026,-1.2088,-1.2116,-1.2157,-1.2204,-1.2215,-1.2259,-1.229,-1.2339,-1.2359,-1.2426,-1.2439,-1.2454,-1.2459,-1.2453,-1.2451,-1.2473,-1.2469,-1.2467,-1.2466,-1.2466,-1.2465,0,-1.1855,-1.1885,-1.1958,-1.2013,-1.2028,-1.2072,-1.2119,-1.2159,-1.2185,-1.2244,-1.226,-1.23,-1.2357,-1.2387,-1.2459,-1.2473,-1.2548,-1.255,-1.2532,-1.2534,-1.2571,-1.2568,-1.2687,-1.2704,-1.2614,-1.2614,-1.2615,0,-1.1901,-1.1944,-1.2004,-1.2036,-1.2065,-1.2117,-1.2151,-1.2178,-1.2214,-1.2272,-1.2306,-1.2365,-1.2413,-1.2505,-1.2541,-1.2596,-1.26,-1.2637,-1.2608,-1.2602,-1.2601,-1.2599,-1.2604,-1.2643,-1.2644,-1.2644,-1.2645,0,-1.198,-1.1993,-1.2043,-1.2098,-1.214,-1.2185,-1.2229,-1.2255,-1.2289,-1.2329,-1.2388,-1.2425,-1.2499,-1.2558,-1.2616,-1.2645,-1.2651,-1.2654,-1.2666,-1.2661,-1.2649,-1.2657,-1.2547,-1.2651,-1.265,-1.265,-1.265,-1.2649,-1.2033,-1.2072,-1.2121,-1.2176,-1.2213,-1.2254,-1.2295,-1.2326,-1.2376,-1.2438,-1.2451,-1.2514,-1.2562,-1.2642,-1.2673,-1.2723,-1.2715,-1.2732,-1.2737,-1.2741,-1.2743,-1.2641,-1.2734,-1.2733,-1.2733,-1.2733,-1.2733,0,-1.2113,-1.2145,-1.2196,-1.2258,-1.2302,-1.2304,-1.2353,-1.239,-1.2445,-1.2489,-1.2537,-1.2606,-1.2663,-1.2703,-1.2762,-1.2794,-1.2798,-1.2809,-1.2807,-1.2814,-1.2746,-1.273,-1.2804,-1.2804,-1.2804,-1.2804,-1.2804,-1.2804,-1.216,-1.2228,-1.2247,-1.2333,-1.2364,-1.2426,-1.2455,-1.2493,-1.2529,-1.2605,-1.2653,-1.2679,-1.2722,-1.2784,-1.2837,-1.2847,-1.2868,-1.2879,-1.2889,-1.2826,-1.2818,-1.2811,-1.2796,-1.2883,-1.2883,-1.2953,-1.2953,-1.2954]},{"header":{"parameterUnit":"m.s-1","parameterCategory":1,"la1":30.2991,"la2":30.254,"lo1":-89.0895,"lo2":-89.0444,"dy":0.0017,"dx":0.0017,"nx":28,"ny":28,"refTime":"2023-11-10T03:00:00:Z","depth":0,"parameterNumber":3,"parameterNumberName":"V-component_of_WINDS"},"data":[0,0,0,0,0,0,0,0,0,0,0,0,0,0,0,0,0,0,0,0,0,0,0,0,0,0,0,0,0,0,0,0,0,0,0,0,0,0,0,0,0,0,0,0,0,0,0,0,0,0,0,0,0,0,0,0,0,0,-0.755,-0.755,0,-0.7563,-0.7563,-0.7563,-0.755,-0.755,-0.7549,-0.7549,-0.7562,-0.7563,-0.7564,0,0,0,0,0,0,0,0,0,0,0,0,0,-0.7511,-0.7512,-0.755,-0.755,-0.755,-0.7563,-0.7563,-0.7563,-0.755,-0.755,-0.7549,-0.7549,-0.7562,-0.7563,-0.7564,0,0,0,0,0,0,0,0,0,0,0,0,0,-0.7527,-0.7513,-0.755,-0.7545,-0.7545,-0.7563,-0.7563,-0.7564,-0.7551,-0.755,-0.7549,-0.7548,-0.7561,-0.7563,-0.7564,-0.7587,0,0,-0.7568,-0.7568,0,0,0,0,0,0,0,0,-0.7526,-0.7528,-0.7546,-0.7546,-0.7545,-0.7554,-0.7555,-0.7571,-0.7551,-0.7548,-0.7549,-0.7548,-0.756,-0.7561,-0.7566,-0.7588,-0.7588,-0.7568,-0.7569,-0.7569,-0.7569,0,0,0,0,0,0,0,-0.7525,-0.7528,-0.7555,-0.7546,-0.7546,-0.7542,-0.7543,-0.7558,-0.7558,-0.7549,-0.7548,-0.7549,-0.756,-0.7564,-0.7566,-0.7589,-0.7568,-0.7569,-0.757,-0.757,-0.7628,-0.7629,0,0,0,0,0,0,-0.7525,-0.7527,-0.7555,-0.7556,-0.7534,-0.7543,-0.7545,-0.7552,-0.7558,-0.7558,-0.755,-0.7549,-0.7563,-0.7564,-0.7566,-0.7592,-0.7569,-0.757,-0.7571,-0.7627,-0.7628,-0.7629,0,0,0,0,0,0,-0.7524,-0.7527,-0.7554,-0.7541,-0.7544,-0.7545,-0.7553,-0.7553,-0.7557,-0.7559,-0.7559,-0.7555,-0.7562,-0.7564,-0.7582,-0.7593,-0.7571,-0.7572,-0.7626,-0.7628,-0.7629,-0.7646,0,0,0,0,0,0,-0.7523,-0.7527,-0.7536,-0.7541,-0.7545,-0.757,-0.7554,-0.7554,-0.756,-0.7558,-0.7564,-0.7564,-0.7562,-0.758,-0.7583,-0.7594,-0.7573,-0.7625,-0.7627,-0.7628,-0.7645,-0.7648,-0.7651,0,0,0,0,0,-0.7521,-0.7541,-0.7537,-0.7541,-0.7557,-0.7571,-0.7573,-0.757,-0.7561,-0.757,-0.757,-0.7564,-0.7591,-0.7582,-0.7585,-0.7597,-0.7625,-0.7626,-0.7628,-0.7643,-0.7647,-0.765,0,0,0,0,0,0,-0.7539,-0.7542,-0.7537,-0.756,-0.7565,-0.7569,-0.758,-0.7574,-0.7583,-0.7581,-0.7576,-0.7578,-0.7596,-0.7598,-0.7587,-0.7618,-0.7606,-0.7609,-0.7617,-0.762,-0.7623,-0.7622,-0.7574,0,0,0,0,0,-0.7545,-0.7556,-0.7558,-0.7578,-0.7581,-0.758,-0.7586,-0.7583,-0.7588,-0.7591,-0.7593,-0.7598,-0.7607,-0.7614,-0.7623,-0.7644,-0.7645,-0.7654,-0.7657,-0.7659,-0.7662,-0.7672,-0.7675,-0.7635,-0.7635,-0.7635,0,0,-0.7558,-0.7561,-0.7569,-0.7581,-0.7585,-0.7596,-0.7582,-0.7595,-0.7603,-0.7593,-0.7609,-0.761,-0.7615,-0.7634,-0.7643,-0.7637,-0.7673,-0.7662,-0.7664,-0.7665,-0.7674,-0.7678,-0.7681,-0.7636,-0.7636,-0.7636,0,0,-0.7588,-0.7592,-0.7608,-0.7611,-0.7617,-0.7616,-0.762,-0.7624,-0.7624,-0.764,-0.7632,-0.7641,-0.7658,-0.7661,-0.7665,-0.7694,-0.7687,-0.7697,-0.7712,-0.7722,-0.7725,-0.7728,-0.7737,-0.7741,-0.7699,-0.7699,-0.7699,0,-0.7604,-0.7621,-0.7617,-0.763,-0.7634,-0.7625,-0.764,-0.7643,-0.7652,-0.7655,-0.7648,-0.7668,-0.7671,-0.7689,-0.7696,-0.77,-0.7703,-0.7696,-0.7725,-0.7728,-0.773,-0.7739,-0.7743,-0.77,-0.77,-0.77,-0.77,0,-0.764,-0.7651,-0.7663,-0.767,-0.7677,-0.7691,-0.7688,-0.7694,-0.769,-0.7689,-0.7704,-0.7707,-0.7716,-0.772,-0.7716,-0.7738,-0.7733,-0.7726,-0.7713,-0.7735,-0.7743,-0.7747,-0.7702,-0.7701,-0.7701,-0.7701,0,0,-0.7683,-0.7686,-0.769,-0.7692,-0.7697,-0.7705,-0.7718,-0.7726,-0.7731,-0.7736,-0.7746,-0.7759,-0.7752,-0.7756,-0.7753,-0.7761,-0.7781,-0.7752,-0.7752,-0.7757,-0.7803,-0.7809,-0.7813,-0.7777,-0.7778,-0.7778,-0.7803,0,-0.7712,-0.7734,-0.7729,-0.7751,-0.776,-0.775,-0.7761,-0.7764,-0.7763,-0.777,-0.7769,-0.7778,-0.7768,-0.777,-0.7778,-0.7777,-0.7791,-0.7776,-0.7785,-0.7786,-0.7784,-0.7817,-0.7824,-0.7847,-0.7806,-0.7806,-0.7807,0,-0.775,-0.7756,-0.7778,-0.7778,-0.7782,-0.7792,-0.7798,-0.7805,-0.7808,-0.7806,-0.781,-0.7804,-0.7816,-0.7803,-0.7817,-0.7807,-0.781,-0.781,-0.7811,-0.7812,-0.7798,-0.7819,-0.7855,-0.7858,-0.7812,-0.7812,-0.7811,0,-0.7778,-0.7791,-0.7806,-0.7808,-0.7809,-0.7816,-0.7817,-0.7819,-0.7823,-0.7828,-0.783,-0.7836,-0.784,-0.7844,-0.7839,-0.7831,-0.7854,-0.7841,-0.7853,-0.7853,-0.7859,-0.7859,-0.7895,-0.7861,-0.7861,-0.7861,-0.7861,0,-0.7811,-0.7825,-0.7818,-0.7827,-0.7841,-0.7835,-0.7849,-0.7849,-0.785,-0.7858,-0.7849,-0.7857,-0.785,-0.7857,-0.7853,-0.7865,-0.7867,-0.7865,-0.7864,-0.7866,-0.7866,-0.7868,-0.7867,-0.7862,-0.7862,-0.7862,-0.7862,0,-0.7846,-0.7841,-0.7856,-0.7855,-0.7855,-0.7866,-0.7865,-0.7873,-0.787,-0.788,-0.7882,-0.7878,-0.7885,-0.7881,-0.7888,-0.7886,-0.7901,-0.7898,-0.79,-0.7899,-0.7911,-0.7909,-0.795,-0.7955,-0.7918,-0.7918,-0.7919,0,-0.7867,-0.7877,-0.7877,-0.7881,-0.7882,-0.789,-0.7894,-0.7887,-0.7891,-0.7894,-0.7901,-0.7907,-0.7912,-0.7923,-0.7921,-0.7926,-0.7922,-0.7936,-0.7923,-0.7924,-0.7922,-0.7921,-0.7921,-0.7939,-0.7939,-0.794,-0.794,0,-0.7905,-0.7902,-0.7908,-0.7913,-0.7917,-0.7921,-0.7924,-0.7928,-0.7921,-0.7926,-0.7932,-0.7936,-0.7942,-0.7948,-0.7952,-0.7952,-0.7944,-0.7944,-0.7947,-0.7949,-0.7949,-0.7948,-0.7907,-0.7943,-0.7943,-0.7943,-0.7942,-0.7942,-0.7934,-0.7941,-0.7942,-0.7948,-0.7949,-0.7951,-0.7958,-0.7955,-0.7961,-0.7965,-0.7961,-0.7969,-0.7969,-0.7973,-0.7973,-0.7979,-0.7973,-0.7978,-0.7979,-0.798,-0.7981,-0.7948,-0.798,-0.7979,-0.7979,-0.7979,-0.7979,0,-0.7971,-0.797,-0.7976,-0.7979,-0.7983,-0.7975,-0.7977,-0.7981,-0.7988,-0.7989,-0.7993,-0.8,-0.8005,-0.8002,-0.8006,-0.8011,-0.8007,-0.8012,-0.8011,-0.8011,-0.7986,-0.7983,-0.8015,-0.8014,-0.8014,-0.8014,-0.8014,-0.8014,-0.7991,-0.8003,-0.7999,-0.8011,-0.801,-0.8017,-0.8019,-0.802,-0.8021,-0.8028,-0.8032,-0.803,-0.8029,-0.8032,-0.8036,-0.8035,-0.8037,-0.8042,-0.804,-0.8017,-0.8013,-0.801,-0.8007,-0.8043,-0.8043,-0.8065,-0.8065,-0.8065]}]]